THORAD DELTA 1 DEB, 10393

Orbit data source: Space-Track

THORAD DELTA 1 DEB, 10393 is space debris in SSO originally from a launch on Fri, 15 Nov 1974 UTC launched from the Air Force Western Test Range (AFWTR). Debris objects in space refer to the collection of defunct objects orbiting the Earth. Examples of debris include non-operational satellites, rocket bodies, and fragments generated from explosions, collisions, or faulty payload assembly.

Loading next visibility...
Identifier
10393, 1974-089EJ
Orbit
SSO
Country
Flag of USUS
Related business
Manufacturer
Unknown
Mission
Spacecraft
Bus & Motor
Unknown
Mass
Unknown
Launch date (UTC)
1974-11-15 (51 years ago)
Launch vehicle
Unknown
Launch site
Air Force Western Test Range (AFWTR)
Object type
Payload
Rocket body
Debris
Shape & HBR
Unknown shape, 0.2 m
Radar Cross Section
Small (<0.1 m²)

Expand to show TLE details & history
Last TLE update: 1 day ago

TLE from 1 day ago
0 THORAD DELTA 1 DEB
1 10393U 74089EJ  25288.11543609  .00000068  00000-0  95274-3 0  9992
2 10393 101.5933 233.5476 0158944  21.4171 354.3451 12.24117583280028
Epoch: 2025-10-15T02:46Z
TLE epoch observation values (Epoch: 2025-10-15T02:46:13.678Z)
Latitude
15.23427°
Longitude
164.90953°
Altitude
1,450.734 km
Speed
7.194 km/s
True Right ascension
15h 21m 26s
True Declination
15° 09' 18"
Sunlit
Object was in daylight at epoch
Visualization orbit readout
Latitude
Unknown
Longitude
Unknown
Altitude
Unknown
Speed
Unknown
Apparent Right ascension
Unknown
Apparent Declination
Unknown
Sunlit
N/A
Visualization observer readout
Local Sidereal Time
23:59:58
Azimuth
Unknown
Elevation
Unknown
Doppler factor
Unknown
Orbital elements
Apogee altitude
1,698.595 km
Perigee altitude
1,445.862 km
Semi-major axis
7,950.365 km
Eccentricity
0.01589
Inclination
101.5933°
RAAN
233.5476°
Arg. of periapsis
21.4171°
True anomaly
354.16201°
Mean anomaly
354.3451°
Eccentric anomaly
354.25392°
Mean motion
3.0617 °/min
Orbital period
117.58 mins
BSTAR
0.00095274
Loading maneuver chart data...
Computing Atmospheric mass density...

Documentation

Showing up to 5 results
|